RH
8 7 8 7 7 7 8 7 7 6 4 5 5 5 5 6 8 8 8 8 8 7 7 7 6 4 4 4 4 4 4 5 5 5 5 5 5 4 4 5 4 3 3 3 3 3 3 3 3
6 6 7 7 7 7 8 11 12 8 6 4 6 5 6 6 6 7 7 7 6 6 5 5 5 6 6 6 5 4 5 5 5 5 5 5 6 5 5 5 6 4 4 4 3 3 3 3 3
6 6 7 7 7 7 8 10 10 11 10 7 6 6 6 6 6 7 6 6 6 6 5 5 5 5 6 6 6 7 6 5 5 6 6 6 6 6 6 6 6 6 6 6 5 4 4 4 3
6 7 7 7 7 8 8 8 10 10 11 11 10 10 7 6 7 7 7 6 6 5 5 6 6 6 6 6 6 6 7 7 7 7 7 6 6 6 6 6 6 6 6 7 7 7 6 4 4
6 6 6 8 7 8 8 8 8 8 9 11 12 12 12 10 7 6 6 6 6 6 6 6 6 7 7 7 7 7 7 7 7 7 8 8 8 7 7 7 7 7 7 7 7 7 7 8 7
6 6 7 7 6 8 10 10 9 10 10 10 12 12 14 14 13 11 9 8 8 8 8 8 8 8 8 8 8 8 8 9 9 9 9 10 11 12 9 8 7 8 8 8 8 8 8 8 8
6 6 7 7 7 8 10 10 12 13 12 11 11 13 15 15 16 14 13 12 12 12 10 9 9 9 9 8 8 8 8 8 9 10 10 11 11 11 13 14 11 8 8 9 9 8 8 8 8
6 6 8 7 7 8 9 10 13 14 19 16 13 14 17 18 18 17 16 14 13 13 13 12 11 11 11 11 11 10 10 10 11 11 11 11 11 11 12 12 13 14 14 13 11 10 9 9 9
6 6 8 8 8 8 10 9 11 15 16 17 21 20 19 19 18 17 17 15 12 12 14 14 12 12 12 12 13 13 14 14 14 14 14 13 13 13 12 12 12 12 12 13 14 15 15 13 11
6 6 7 7 8 10 10 11 11 14 20 18 18 18 17 15 15 15 16 15 13 12 12 13 13 13 13 14 15 15 16 16 16 15 16 16 16 16 15 14 14 13 13 13 13 14 14 16 16
8 8 7 7 7 9 11 12 13 16 21 23 18 16 16 15 14 14 15 15 14 13 12 13 14 14 14 15 16 17 17 17 18 18 19 19 18 18 17 17 18 18 18 17 17 16 16 17 17
9 8 8 7 7 9 11 12 13 16 20 21 20 18 17 16 15 15 16 15 14 12 12 13 14 16 17 18 18 18 19 19 19 18 18 18 14 12 12 12 13 14 15 19 22 22 21 20 20
9 8 8 9 10 11 13 14 15 16 19 20 20 20 20 18 16 15 15 14 14 13 12 12 12 13 16 17 18 18 18 18 16 14 13 12 12 12 13 14 15 16 17 17 17 21 25 26 24
9 9 10 12 12 14 17 17 17 18 20 19 19 19 18 18 18 18 18 17 16 16 15 13 13 13 13 13 13 13 12 11 11 11 11 11 11 12 13 14 15 18 20 22 22 21 22 25 28
10 10 13 13 13 15 17 19 20 21 23 23 23 22 21 19 18 16 16 16 15 14 13 12 10 9 9 11 12 11 10 10 10 10 10 11 12 14 15 16 17 18 20 22 24 26 26 25 26
12 11 13 13 12 12 14 16 16 20 21 21 20 18 16 15 14 13 13 12 12 11 10 10 10 9 8 7 7 7 8 8 9 10 13 16 18 19 20 21 22 24 24 25 27 29 31 32 31
12 12 12 12 11 11 11 12 11 12 14 16 15 14 14 14 14 13 12 12 12 12 12 12 11 11 10 10 9 9 9 10 11 16 19 19 18 19 19 21 22 24 27 30 31 34 36 39 39
13 11 12 12 12 11 11 12 12 11 12 13 14 14 14 14 13 14 13 12 12 12 12 13 14 14 15 16 16 17 19 23 24 24 21 20 18 18 19 21 22 22 23 27 31 34 38 42 45
14 14 13 13 14 13 12 13 13 14 15 16 16 17 17 16 16 15 15 14 14 13 13 15 18 19 21 26 30 30 29 28 26 25 24 23 22 22 22 21 22 21 22 25 30 32 35 40 46
14 16 16 14 14 14 15 14 17 16 17 18 18 19 20 19 18 17 16 16 15 15 15 15 16 18 20 23 26 28 30 29 28 26 25 24 24 24 24 23 23 23 23 24 26 33 39 38 41
15 16 17 17 18 16 15 15 18 19 18 17 19 20 21 21 21 19 18 17 16 16 15 15 16 17 18 20 22 24 25 27 27 27 27 28 29 29 28 28 28 29 30 34 35 36 37 42 44
19 17 16 17 18 16 19 16 18 19 20 21 22 22 22 23 22 20 19 18 17 17 16 16 17 18 19 21 22 22 24 26 28 29 30 31 32 32 32 34 37 41 44 46 49 51 50 49 49
29 26 22 19 18 17 17 18 18 19 19 20 23 24 22 21 19 18 17 17 17 17 17 18 18 20 21 23 24 25 26 28 29 32 32 33 34 36 37 37 37 39 42 46 51 53 54 57 59
27 28 27 26 25 23 23 23 20 21 20 19 20 19 19 19 20 20 21 21 21 20 21 22 22 22 22 24 26 27 27 30 33 35 36 37 37 37 37 36 35 35 36 39 40 44 51 60 62
21 22 22 21 21 19 19 18 18 18 19 20 20 22 24 25 26 26 26 27 26 26 27 27 27 28 28 28 29 30 30 32 35 39 39 39 39 38 37 36 35 35 35 39 41 46 47 48 55
25 25 25 23 22 20 20 19 21 24 25 26 26 26 27 28 28 29 30 30 30 31 31 32 33 34 34 34 35 35 35 36 40 42 41 40 38 38 37 37 38 38 39 45 56 72 77 76 73
30 29 29 28 26 26 25 23 25 29 31 32 36 53 66 66 59 51 46 44 44 50 48 40 37 36 35 35 36 36 37 39 38 38 39 42 49 53 50 48 45 46 51 54 67 88 92 91 91
35 34 34 34 32 30 29 37 54 68 82 83 79 78 76 75 74 72 69 66 68 78 85 87 83 75 66 59 53 44 50 68 75 72 72 75 75 73 79 82 80 77 76 75 78 91 83 87 97
47 45 47 50 48 49 48 56 66 77 80 77 74 71 70 68 65 63 62 64 65 66 67 69 71 74 83 91 94 96 100 100 100 98 96 98 100 99 96 88 80 89 99 95 95 91 81 79 89
60 61 72 84 83 83 81 71 78 72 63 56 50 44 39 33 28 26 23 22 21 18 15 14 13 14 14 14 14 15 19 35 71 98 98 100 99 100 98 100 97 100 98 100 100 93 91 87 90
Wind_Speed
9 11 10 10 9 5 3 4 3 4 4 4 4 6 7 7 7 6 5 5 3 3 4 4 5 6 7 6 6 5 5 5 4 4 2 2 2 3 4 4 4 5 4 3 4 6 8 9 12
12 14 14 13 13 9 6 4 6 5 4 4 4 6 6 7 8 8 6 6 5 5 5 5 6 6 7 8 7 7 7 7 7 6 6 5 4 5 5 4 4 4 5 5 5 5 5 6 8
16 17 17 17 17 13 11 9 9 7 7 5 4 4 7 9 10 10 9 9 9 8 8 7 7 7 6 7 9 9 9 10 10 10 10 9 8 7 7 7 6 4 4 4 5 5 5 6 6
18 19 21 19 20 18 16 14 13 12 10 8 7 6 6 10 11 12 11 12 12 11 10 9 9 8 9 8 9 9 10 10 11 12 11 11 11 11 11 10 9 8 7 5 5 6 6 7 7
15 17 19 20 22 22 20 19 18 16 15 13 11 10 9 10 12 13 13 14 14 12 12 11 10 10 9 8 9 9 10 10 11 12 11 11 10 11 12 13 13 11 10 8 7 7 9 9 8
15 16 17 18 19 22 22 22 21 19 19 19 16 14 13 12 14 15 15 15 15 14 14 13 13 13 12 12 11 11 11 11 12 12 12 12 11 10 11 13 15 15 14 12 10 11 10 9 10
16 17 17 17 17 18 19 21 23 24 22 22 21 18 16 15 16 17 16 16 17 17 17 18 17 16 15 15 14 15 15 15 14 14 14 13 13 13 14 14 14 15 16 15 14 14 14 12 12
17 17 17 17 15 16 16 18 20 23 24 24 23 22 19 19 19 19 20 19 20 20 20 20 20 20 19 19 19 19 18 18 17 16 16 15 16 16 16 17 18 17 17 16 16 16 15 15 15
16 17 17 16 17 16 17 19 20 22 22 25 26 25 22 22 20 20 22 22 21 21 22 21 21 21 20 20 21 21 21 20 20 20 19 19 19 19 19 19 19 20 20 21 20 20 18 17 17
15 17 17 17 19 18 17 18 19 18 18 21 25 25 23 22 22 21 22 23 22 21 21 23 23 23 23 24 24 24 23 22 21 21 21 21 20 20 21 21 21 21 21 22 22 22 22 21 20
15 16 16 17 19 19 19 19 18 16 17 19 21 21 21 21 21 21 21 22 22 23 23 23 24 25 25 26 25 25 24 24 23 23 23 23 23 23 23 24 23 23 23 23 23 22 22 22 22
16 15 15 16 17 17 17 17 16 16 18 18 18 18 19 20 20 20 21 23 24 26 26 26 25 26 26 26 25 25 24 24 24 24 25 25 24 25 24 24 24 24 24 25 24 23 23 23 23
15 15 14 13 13 13 13 13 14 16 16 15 15 16 17 18 18 19 20 22 23 25 26 26 26 27 27 27 26 26 25 25 26 26 26 24 23 22 21 21 21 21 21 23 24 25 25 25 25
14 14 13 12 11 10 9 9 10 11 10 11 12 12 13 12 13 14 15 17 19 21 21 22 20 22 24 25 26 26 25 25 25 24 23 22 21 20 20 21 21 21 22 22 23 24 25 26 27
15 14 13 12 11 10 9 8 9 9 8 9 10 11 12 12 13 14 15 17 18 20 21 21 19 19 20 20 21 21 22 22 22 22 21 20 20 20 21 21 21 22 22 23 23 24 25 26 27
17 16 15 13 12 12 11 12 11 10 11 11 12 13 14 15 15 16 17 18 19 20 21 21 21 21 22 21 21 21 22 22 22 21 21 21 21 21 22 22 22 23 23 24 24 25 26 27 28
18 18 16 16 14 13 12 13 12 12 12 13 13 14 14 15 16 16 17 18 18 19 20 21 21 21 22 22 22 22 22 22 21 21 22 22 22 23 23 23 23 24 24 25 26 27 28 28 29
20 19 19 18 16 15 13 14 13 12 11 12 12 13 14 15 15 16 16 17 19 19 20 20 20 21 21 20 20 21 21 21 22 23 23 24 25 25 26 25 26 26 26 27 27 28 29 30 31
22 22 21 21 19 19 16 15 17 15 14 15 15 16 17 19 19 20 19 19 19 19 19 20 20 22 23 22 22 22 22 22 24 25 26 27 28 28 28 28 28 29 29 29 30 30 30 31 33
25 24 23 25 24 23 21 19 22 21 19 20 21 20 22 23 24 23 24 23 24 23 22 22 23 24 25 26 26 27 27 28 28 28 28 29 29 30 30 31 31 31 31 31 31 31 32 33 34
26 26 27 29 28 28 27 24 27 27 26 26 26 26 26 27 28 28 27 27 27 27 26 25 25 26 27 27 28 29 30 29 29 29 29 30 30 30 30 31 31 32 32 32 32 32 33 34 35
27 28 29 31 32 32 31 30 27 28 29 29 29 29 30 31 31 30 30 30 30 30 29 29 29 29 28 28 30 31 31 30 30 30 30 30 30 31 31 31 32 32 32 33 33 34 35 36 37
29 29 30 32 33 35 32 36 27 28 30 31 31 31 31 30 31 31 31 31 32 32 33 32 32 32 31 30 31 32 32 32 32 32 33 33 33 33 33 33 34 34 34 34 34 35 36 37 38
29 29 32 33 34 38 31 34 33 29 28 29 29 29 29 29 28 29 31 31 32 33 34 35 34 34 34 34 35 36 36 35 35 36 36 36 36 37 38 37 37 38 38 38 38 38 39 39 39
28 29 32 34 33 35 33 35 32 30 27 27 28 29 30 30 30 31 32 32 33 33 35 35 36 38 38 38 38 39 39 39 39 41 41 40 41 42 42 42 42 42 42 43 42 42 42 42 43
30 31 32 35 35 35 35 37 33 32 32 31 30 30 31 31 32 33 34 34 35 37 38 39 40 42 43 42 42 43 44 43 44 45 46 46 47 48 47 48 48 47 46 46 45 45 45 45 45
30 31 32 36 38 39 39 38 36 34 33 34 34 34 34 35 35 36 36 36 36 37 38 40 42 44 45 45 44 45 45 46 47 49 50 49 50 51 52 52 52 51 49 49 48 48 47 46 45
32 32 33 35 39 40 41 39 38 38 38 37 36 34 35 35 35 36 38 39 40 41 42 43 45 46 47 48 49 50 50 51 52 53 53 53 53 54 55 56 56 56 54 54 52 49 47 45 45
33 34 34 36 39 41 44 43 44 41 37 36 36 37 38 38 39 39 40 41 41 43 44 45 46 48 50 52 52 54 56 57 57 57 58 59 59 60 57 56 55 57 54 53 54 52 51 49 46
34 36 38 40 42 42 42 42 40 38 38 39 39 40 41 42 42 42 43 44 45 46 46 47 49 50 51 52 53 54 55 56 57 58 60 62 60 58 55 55 54 57 57 53 58 56 58 54 55
Wind_Direction
255 258 254 257 262 281 320 312 310 290 248 195 168 161 172 188 192 189 182 198 202 206 217 219 223 228 236 237 236 226 230 233 243 256 285 298 311 307 310 322 305 286 305 336 9 25 29 25 24
257 257 254 255 263 270 270 275 292 286 267 221 194 174 186 202 215 217 216 225 232 235 242 243 242 234 233 235 240 241 242 244 247 255 266 277 288 293 298 292 304 302 287 299 318 345 360 354 17
258 258 257 258 261 261 253 260 267 271 267 238 229 211 196 212 222 226 228 235 240 245 248 247 253 249 250 247 244 240 244 248 251 255 259 265 273 282 279 278 279 286 312 333 327 326 326 326 353
260 258 257 257 261 260 259 252 254 255 263 264 244 242 225 224 225 233 233 236 242 246 250 249 250 247 242 243 249 250 248 250 254 254 258 263 268 270 271 266 267 271 280 297 321 334 315 318 339
264 265 261 259 261 261 258 258 254 256 256 253 251 246 242 240 240 238 238 240 244 249 251 249 250 249 251 253 251 250 252 254 254 253 256 260 263 263 262 261 261 265 272 277 285 290 301 323 333
267 266 267 266 270 265 261 260 259 255 253 253 249 247 249 249 248 245 245 248 251 252 254 256 253 253 255 253 254 256 256 255 257 258 259 261 263 263 262 259 259 261 266 272 276 279 287 298 308
268 266 268 273 278 274 268 264 258 255 250 249 250 248 250 254 253 252 250 252 254 256 256 256 255 256 256 258 259 257 256 257 258 259 261 264 265 265 262 263 261 261 261 265 268 274 279 284 287
269 267 265 272 277 279 273 265 258 256 253 249 247 248 252 254 252 254 255 257 258 255 253 255 255 257 259 258 258 258 259 260 261 262 263 265 266 264 264 263 262 264 266 266 269 272 274 276 281
269 266 265 271 274 274 277 274 269 260 254 250 250 248 250 253 252 252 255 258 259 257 254 254 255 255 254 255 257 257 258 259 261 263 265 265 265 265 265 264 265 264 264 265 266 268 270 273 274
265 266 269 273 272 274 274 274 273 271 258 252 248 248 247 252 254 252 251 255 256 257 254 252 252 253 254 257 259 259 259 259 261 262 263 264 266 267 268 267 267 267 267 266 266 266 266 267 268
268 271 274 277 275 271 271 273 275 272 259 255 253 248 246 247 248 250 250 253 257 258 258 258 257 257 257 258 259 260 260 259 260 261 262 264 265 266 267 267 267 266 266 267 267 266 266 266 266
271 274 277 277 274 270 268 269 271 265 258 259 256 252 246 246 247 250 251 252 256 258 258 257 257 257 258 259 259 259 259 259 260 260 262 264 266 268 268 269 269 268 268 267 266 266 266 266 266
270 274 276 279 275 269 266 265 265 262 258 256 257 259 254 251 250 251 252 253 255 258 258 258 258 257 256 256 255 255 257 259 261 262 263 265 266 267 268 269 269 269 268 268 267 265 264 265 265
268 270 272 274 274 268 266 266 262 260 255 251 252 254 258 256 250 248 249 250 252 255 257 258 257 256 254 253 253 254 255 258 259 261 263 265 267 270 272 273 273 273 271 270 269 268 266 264 264
262 261 263 265 264 264 262 260 259 258 248 245 250 254 255 256 257 255 252 251 252 255 257 259 257 256 255 253 253 255 256 257 259 261 261 264 268 270 273 274 274 275 274 272 271 269 269 267 265
255 258 257 259 260 261 259 259 261 257 256 256 257 258 261 261 260 258 257 256 253 254 255 257 257 255 256 256 256 256 256 256 257 257 260 263 267 269 270 273 275 275 275 275 273 271 269 268 267
251 251 254 254 258 253 251 257 259 260 254 252 256 262 264 266 266 264 263 262 260 257 255 255 255 255 254 255 256 258 257 256 256 257 259 264 268 270 271 272 274 276 277 276 275 274 272 270 268
249 251 250 250 254 250 248 248 251 254 250 250 253 260 267 271 269 268 269 266 262 260 259 258 255 255 256 255 254 254 253 255 257 258 261 266 269 270 272 273 275 277 277 277 277 276 274 273 272
251 250 251 253 248 246 244 246 252 245 247 249 253 260 267 268 271 271 269 268 268 265 260 258 258 258 258 257 257 256 256 257 259 262 265 268 270 271 272 273 275 276 277 277 277 277 276 274 273
251 251 253 254 253 253 247 245 253 254 250 253 255 259 264 270 273 272 271 269 268 268 264 260 258 257 256 256 256 257 258 260 263 265 267 268 269 271 272 273 275 275 276 276 276 277 277 276 274
254 254 253 257 256 256 253 245 250 260 262 262 263 266 266 269 274 275 273 273 272 269 267 265 263 262 260 260 260 260 259 259 260 262 264 267 269 271 273 274 275 276 277 278 278 277 277 276 275
257 259 258 260 262 263 262 261 256 260 266 268 269 270 271 274 274 272 270 270 269 269 270 268 266 265 265 265 264 264 264 266 267 269 270 270 272 273 274 275 276 277 278 278 279 279 279 278 278
261 261 262 262 263 264 265 268 262 262 265 269 271 271 270 270 269 270 270 270 270 269 269 267 267 266 266 266 266 267 267 267 269 270 270 272 273 274 275 276 277 278 279 280 280 281 281 280 278
262 263 264 265 266 267 270 272 272 270 265 266 269 269 269 269 268 267 266 266 266 266 267 267 267 268 269 268 268 268 269 269 270 269 271 273 274 274 274 275 276 276 276 277 277 278 279 280 280
263 264 266 266 267 273 272 271 275 275 272 266 266 268 270 270 269 268 266 264 263 262 263 265 267 268 268 268 265 264 264 266 266 266 268 270 273 274 273 273 274 274 275 275 276 277 277 277 278
263 264 266 272 272 272 271 272 277 276 276 273 268 266 266 266 265 265 264 263 262 261 262 262 262 262 264 265 265 265 266 267 264 265 266 269 270 272 272 272 273 273 275 274 276 278 278 277 276
263 264 264 268 271 273 275 276 278 278 278 276 274 274 270 265 263 262 262 262 260 262 261 259 259 261 262 262 261 262 262 262 264 265 267 270 271 271 271 272 272 273 274 274 275 278 277 276 275
263 264 264 266 271 272 274 276 278 279 281 278 276 272 270 267 265 263 261 259 260 260 259 259 259 260 260 261 262 262 262 262 264 263 264 265 267 268 270 271 272 274 274 275 277 278 278 276 274
264 265 265 266 267 272 274 276 279 284 283 280 276 272 270 270 269 267 265 264 261 260 261 262 262 262 262 262 262 261 261 262 262 262 262 265 268 266 265 268 270 276 276 274 275 277 279 277 278
265 267 268 268 270 271 274 277 279 282 276 273 273 273 273 273 272 272 271 269 267 266 264 262 261 261 261 262 263 263 263 263 261 261 261 264 265 265 265 268 267 273 274 268 268 277 274 274 275